User: anonymous   Login
Location: Unspecified
(0.0000°N, 0.0000°E)
Time: 23:12:05
(UTC+00:00)
Language:

BEESAT 2 - Orbit

View from above orbital plane
View from above orbital plane
View from above satellite
View from above satellite

Ground track
Ground track

The orbit data is extracted from the following two-line orbital elements,

1 39136U 13015G   20224.44553015  .00000737  00000-0  45956-4 0  9999
2 39136  64.8725 128.9646 0033570 273.8344  85.8944 15.17665943403856
Epoch (UTC): 11 August 2020 10:41:33
Eccentricity: 0.0033570
inclination: 64.8725°
perigee height: 490 km
apogee height: 536 km
right ascension of ascending node: 128.9646°
argument of perigee: 273.8344°
revolutions per day: 15.17665943
mean anomaly at epoch: 85.8944°
orbit number at epoch: 40385

The dashed part of the orbit path shows where the satellite is in the earth's shadow,  

DLR